sat.trackr.live / text

‹ back to catalog

STARLINK-31348

NORAD 59172 · 2024-044W

PAYLOAD ACTIVE UNKNOWN

§ Identity

Operator
Country
US
Launch date
2024-03-04
Launch site
AFETR
Launch vehicle
Mass (kg)
RCS (m²)

Purposes: comms

External: N2YO · Heavens-Above · Gunter

§ Orbital elements

Epoch: 2026-05-24T20:15:28.257120Z

Period
94.27 min
Inclination
43.0005°
Eccentricity
0.0001583
Mean motion
15.27592496 rev/d
Perigee alt
481.9 km
Apogee alt
484.1 km
Semi-major
6,861.1 km
B*
8.6580e-4
RAAN
350.1291°
Arg perigee
268.9947°
Mean anomaly
91.0723°
Rev number
12,575

§ Raw data

STARLINK-313481 59172U 24044W   26144.84407705  .00023649  00000+0  86580-3 0  99932 59172  43.0005 350.1291 0001583 268.9947  91.0723 15.27592496125753

JSON: /api/v1/satellites/59172 · /tle

For live sub-satellite position, see the globe view (requires WebGL).

§ Visibility from observer

Set your observer location to see the next 7 days of passes ≥ 10°. The values pass through the URL so the page stays shareable.

No JS? Fill the form by hand. The geolocation button needs JavaScript.